Home   Weather   Potsdam   Past weeks

Flag for Germany Past Weather in Potsdam, Brandenburg, Germany — Yesterday and Last 2 Weeks

Now
28 °F

Ice fog.


Feels Like: 22 °F
Forecast: 25 / 33 °F
Wind: 6 mph from West

Location: Berlin-Tegel

Current Time: Jan 24, 2017 at 6:35:01 am

Latest Report: Jan 24, 2017 at 6:20 am


Visibility: 2 mi

Pressure: 30.30 "Hg

Humidity: 100%

Dew Point: 28 °F

Location of PotsdamLocation

Past Weather in Potsdam — Graph

°F

Potsdam Temperature Yesterday

Maximum temperature yesterday: 28 °F (at 12:20 am)
Minimum temperature yesterday: 25 °F (at 3:20 am)
Average temperature yesterday: 27 °F

High & Low Weather Summary for the Past Weeks

 TemperatureHumidityPressure
High41 °F (Jan 12, 1:50 pm)100% (Jan 9, 5:20 am)30.77 "Hg (Jan 9, 5:20 am)
Low18 °F (Jan 17, 7:20 am)65% (Jan 10, 1:20 pm)29.00 "Hg (Jan 13, 7:50 am)
Average30 °F89%30.15 "Hg
* Reported Jan 9 5:20 am — Jan 24 5:20 am, Potsdam, Weather by CustomWeather, © 2017

Note: Actual official high and low records may vary slightly from our data, if they occured in-between our weather recording intervals... More about our weather records

Advertising

Potsdam Weather History for the Previous 24 Hours

Scroll right to see more
 ConditionsComfort  
Time TempWeatherWind HumidityBarometerVisibility
5:20 am
Tue, Jan 24
28 °FIce fog.5 mph100%30.27 "Hg2 mi
4:50 am28 °FIce fog.7 mph100%30.27 "Hg2 mi
4:20 am28 °FIce fog.6 mph100%30.27 "Hg2 mi
3:50 am30 °FIce fog.6 mph93%30.27 "Hg2 mi
3:20 am28 °FIce fog.6 mph100%30.27 "Hg2 mi
2:50 am28 °FIce fog.5 mph100%30.30 "Hg2 mi
2:20 am28 °FIce fog.6 mph100%30.27 "Hg2 mi
1:50 am28 °FIce fog.6 mph100%30.27 "Hg2 mi
1:20 am28 °FIce fog.5 mph100%30.27 "Hg2 mi
12:50 am28 °FIce fog.6 mph100%30.27 "Hg2 mi
12:20 am28 °FIce fog.6 mph100%30.27 "Hg2 mi
11:50 pm
Mon, Jan 23
28 °FIce fog.6 mph100%30.27 "Hg2 mi
11:20 pm28 °FSnow flurries. Ice fog.7 mph100%30.27 "Hg2 mi
10:50 pm28 °FSnow flurries. Ice fog.6 mph100%30.27 "Hg2 mi
10:20 pm28 °FSnow flurries. Ice fog.7 mph100%30.27 "Hg2 mi
9:50 pm28 °FSnow flurries. Ice fog.7 mph100%30.27 "Hg2 mi
9:20 pm28 °FSnow flurries. Ice fog.6 mph100%30.27 "Hg2 mi
8:50 pm28 °FSnow flurries. Ice fog.6 mph100%30.27 "Hg2 mi
8:20 pm28 °FSnow flurries. Ice fog.7 mph100%30.27 "Hg2 mi
7:50 pm28 °FSnow flurries. Ice fog.7 mph100%30.27 "Hg2 mi
7:20 pm28 °FSnow flurries. Ice fog.6 mph100%30.27 "Hg2 mi
6:50 pm28 °FSnow flurries. Ice fog.5 mph93%30.27 "Hg3 mi
6:20 pm28 °FSnow flurries. Passing clouds.6 mph93%30.27 "Hg5 mi
5:50 pm28 °FSnow flurries. Passing clouds.5 mph93%30.27 "HgN/A
5:20 pm28 °FSnow flurries. Passing clouds.3 mph93%30.27 "HgN/A
4:50 pm28 °FSnow flurries. Passing clouds.5 mph86%30.27 "HgN/A
4:20 pm28 °FPartly sunny.6 mph86%30.27 "HgN/A
3:50 pm28 °FBroken clouds.6 mph86%30.27 "HgN/A
3:20 pm28 °FPartly sunny.8 mph93%30.27 "Hg5 mi
2:50 pm28 °FPartly sunny.6 mph86%30.24 "Hg5 mi
2:20 pm27 °FPartly sunny.8 mph93%30.24 "Hg5 mi
1:50 pm27 °FLow clouds.8 mph100%30.24 "Hg4 mi
1:20 pm27 °FIce fog.7 mph100%30.27 "Hg2 mi
12:50 pm27 °FIce fog.8 mph100%30.27 "Hg2 mi
12:20 pm27 °FSnow flurries. Ice fog.6 mph100%30.27 "Hg2 mi
11:50 am27 °FSnow flurries. Ice fog.5 mph100%30.27 "Hg2 mi
11:20 am27 °FSnow flurries. Ice fog.7 mph93%30.27 "Hg2 mi
10:50 am27 °FSnow flurries. Ice fog.5 mph93%30.27 "Hg2 mi
10:20 am25 °FIce fog.7 mph100%30.27 "Hg2 mi
9:50 am25 °FIce fog.6 mph100%30.27 "Hg2 mi
9:20 am25 °FIce fog.6 mph100%30.27 "Hg2 mi
8:50 am25 °FIce fog.6 mph93%30.27 "Hg2 mi
8:20 am25 °FIce fog.8 mph93%30.27 "Hg2 mi
7:50 am25 °FIce fog.7 mph100%30.24 "Hg2 mi
7:20 am25 °FIce fog.1 mph100%30.24 "Hg2 mi
6:50 am25 °FIce fog.3 mph100%30.24 "Hg2 mi
6:20 am27 °FIce fog.2 mph93%30.24 "Hg2 mi
Weather by CustomWeather, © 2017

See weather overviewHow to use our weather pages